This is the latest recevied weather packets stored in our database for station/object W9PEM-13. If no packets are shown the sender has not sent any weather packets the latest 10 day(s).
| Time | Temp. | Humidity | Pressure | Rain* | Wind** | Luminosity | Snow |
|---|---|---|---|---|---|---|---|
| 1777592419 | 3.89° C | 80% | 984.6 hPa | 0 mm | - | 100 W/m² | - |
| 1777591818 | 3.89° C | 81% | 984.5 hPa | 0 mm | - | 88 W/m² | - |
| 1777591216 | 3.89° C | 82% | 984.6 hPa | 0 mm | - | 99 W/m² | - |
| 1777590616 | 3.89° C | 81% | 984.6 hPa | 0 mm | - | 88 W/m² | - |
| 1777590016 | 4.44° C | 80% | 984.7 hPa | 0 mm | - | 112 W/m² | - |
| 1777589416 | 4.44° C | 78% | 984.7 hPa | 0 mm | - | 125 W/m² | - |
| 1777588816 | 4.44° C | 77% | 984.8 hPa | 0 mm | - | 165 W/m² | - |
| 1777588216 | 4.44° C | 79% | 984.9 hPa | 0 mm | - | 122 W/m² | - |
| 1777587617 | 4.44° C | 79% | 984.9 hPa | 0 mm | - | 197 W/m² | - |
| 1777587018 | 4.44° C | 79% | 984.8 hPa | 0 mm | - | 168 W/m² | - |
| 1777586416 | 4.44° C | 78% | 984.9 hPa | 0 mm | - | 151 W/m² | - |
| 1777585816 | 4.44° C | 78% | 984.8 hPa | 0 mm | - | 153 W/m² | - |
| 1777585216 | 5° C | 77% | 984.8 hPa | 0 mm | - | 157 W/m² | - |
| 1777584616 | 5° C | 77% | 984.9 hPa | 0 mm | - | 190 W/m² | - |
| 1777584016 | 5° C | 78% | 985.1 hPa | 0 mm | - | 197 W/m² | - |
| 1777583416 | 5° C | 78% | 985.1 hPa | 0 mm | - | 221 W/m² | - |
| 1777582817 | 5° C | 78% | 985.2 hPa | 0 mm | - | 330 W/m² | - |
| 1777582216 | 5° C | 79% | 985.3 hPa | 0 mm | - | 315 W/m² | - |
| 1777581616 | 5° C | 79% | 985.4 hPa | 0 mm | - | 169 W/m² | - |
| 1777581017 | 5° C | 77% | 985.6 hPa | 0 mm | - | 188 W/m² | - |
| 1777580416 | 5° C | 78% | 985.6 hPa | 0 mm | - | 187 W/m² | - |
| 1777579816 | 5.56° C | 78% | 985.6 hPa | 0 mm | - | 215 W/m² | - |
| 1777579216 | 6.11° C | 76% | 985.6 hPa | 0 mm | - | 311 W/m² | - |
| 1777578616 | 6.67° C | 73% | 985.6 hPa | 0 mm | - | 473 W/m² | - |
| 1777578016 | 6.67° C | 73% | 985.6 hPa | 0 mm | - | 823 W/m² | - |
* Rain latest hour (hover to see other rain measurements)
** Current wind speed in m/s (hover to see current wind gust speed)